Waarnemingen

Advertentie
Mijn weer
Blomskog, Zweden (2408): temperatuur & dauwpunt: 01.08.2020 23:00:00 - 07.08.2020 23:00:00 (CEST)Blomskog, Zweden (2408): windsnelheid & windstoten: 01.08.2020 23:00:00 - 07.08.2020 23:00:00 (CEST)Blomskog, Zweden (2408): windrichting: 01.08.2020 23:00:00 - 07.08.2020 23:00:00 (CEST)Blomskog, Zweden (2408): luchtdruk: 01.08.2020 23:00:00 - 07.08.2020 23:00:00 (CEST)Blomskog, Zweden (2408): zicht: 01.08.2020 23:00:00 - 07.08.2020 23:00:00 (CEST)Blomskog, Zweden (2408): neerslag: 01.08.2020 23:00:00 - 07.08.2020 23:00:00 (CEST)
Datum & Tijd tt [°C] td [°C] ff [km/u] ff [kn] fx [km/u] fx [kn] dd ppp [hPa] vv [km] rr [mm]
07.08.2020 23:00:00 15,5 13,2 0 0 4 2 N 1023,7 50 0,0
07.08.2020 22:00:00 16,5 13,4 0 0 4 2 N 1023,6 50 0,0
07.08.2020 21:00:00 18,4 13,3 0 0 5 3 N 1023,2 50 0,0
07.08.2020 20:00:00 23,4 13,6 3 2 14 8 ZZW 1022,7 50 0,0
07.08.2020 19:00:00 25,8 12,3 6 3 19 10 ZW 1022,5 50 0,0
07.08.2020 18:00:00 26,9 11,8 10 5 23 12 WZW 1022,6 49 0,0
07.08.2020 17:00:00 27,2 12,8 11 6 28 15 ZW 1022,8 50 0,0
07.08.2020 16:00:00 27,0 13,4 11 6 23 12 WZW 1022,8 43 0,0
07.08.2020 15:00:00 27,1 13,8 8 4 23 12 ZW 1022,8 50 0,0
07.08.2020 14:00:00 25,8 13,3 7 4 22 12 Z 1023,2 36 0,0
07.08.2020 13:00:00 26,2 13,0 9 5 17 9 ZW 1023,4 39 0,0
07.08.2020 12:00:00 25,5 14,6 6 3 16 9 ZZW 1023,4 47 0,0
07.08.2020 11:00:00 23,6 16,3 5 3 14 8 OZO 1023,6 50 0,0
07.08.2020 10:00:00 21,9 14,8 6 4 10 6 ZZO 1023,7 46 0,0
07.08.2020 09:00:00 20,6 14,3 4 2 11 6 ZZO 1023,7 45 0,0
07.08.2020 08:00:00 19,7 13,6 3 2 10 5 ZZO 1023,5 48 0,0
07.08.2020 07:00:00 17,6 13,5 3 2 8 5 OZO 1023,4 50 0,0
07.08.2020 06:00:00 17,4 13,3 3 2 12 7 ZO 1023,1 50 0,0
07.08.2020 05:00:00 17,4 13,5 4 2 11 6 OZO 1022,9 50 0,0
07.08.2020 04:00:00 16,0 14,0 3 2 8 5 OZO 1023,1 50 0,0
07.08.2020 03:00:00 16,2 13,9 4 2 9 5 O 1023,2 50 0,0
07.08.2020 02:00:00 15,8 15,6 2 1 4 2 O 1023,4 42 0,0
07.08.2020 01:00:00 16,0 15,5 0 0 5 3 N 1023,3 49 0,0
07.08.2020 00:00:00 16,5 15,5 2 1 5 3 O 1023,1 47 0,0
06.08.2020 23:00:00 17,2 14,4 3 2 10 5 OZO 1022,8 50 0,0
06.08.2020 22:00:00 19,2 14,5 3 2 8 5 OZO 1022,2 50 0,0
06.08.2020 21:00:00 20,4 14,5 3 2 10 5 ZO 1021,9 50 0,0
06.08.2020 20:00:00 22,1 15,0 3 2 9 5 ZO 1021,6 50 0,0
06.08.2020 19:00:00 22,9 13,1 5 3 12 6 ZO 1021,5 47 0,0
06.08.2020 18:00:00 24,3 13,2 4 2 14 8 ZZW 1021,3 45 0,0
06.08.2020 17:00:00 24,0 11,0 7 4 21 12 WZW 1021,3 41 0,0
06.08.2020 16:00:00 23,3 12,0 9 5 22 12 ZW 1021,1 37 0,0
06.08.2020 15:00:00 22,8 14,4 11 6 21 12 ZW 1021,0 33 0,0
06.08.2020 14:00:00 21,8 15,6 9 5 17 9 ZW 1020,8 38 0,0
06.08.2020 13:00:00 21,1 16,3 8 5 20 11 ZW 1020,5 39 0,0
06.08.2020 12:00:00 19,3 16,1 8 4 20 11 WZW 1020,3 41 0,0
06.08.2020 11:00:00 17,3 17,1 6 3 14 8 WZW 1019,7 38 0,0
06.08.2020 10:00:00 16,7 16,5 6 4 19 10 WZW 1019,3 50 0,0
06.08.2020 09:00:00 16,1 15,9 6 4 13 7 ZW 1018,6 21 0,1
06.08.2020 08:00:00 15,8 15,6 6 4 17 9 WZW 1017,9 19 0,2
06.08.2020 07:00:00 15,6 15,4 8 4 21 11 ZW 1017,0 9 0,0
06.08.2020 06:00:00 15,4 15,2 7 4 21 11 ZW 1016,3 9 0,0
06.08.2020 05:00:00 15,4 15,2 11 6 24 13 ZW 1015,9 9 0,0
06.08.2020 04:00:00 15,3 15,1 9 5 25 14 WZW 1015,3 8 0,0
06.08.2020 03:00:00 15,3 15,1 8 5 29 16 WZW 1014,9 7 0,0
06.08.2020 02:00:00 15,2 15,0 9 5 21 11 ZW 1014,1 4,1 0,0
06.08.2020 01:00:00 15,3 15,1 7 4 22 12 ZW 1013,7 10 0,0
06.08.2020 00:00:00 15,2 15,0 6 3 16 8 ZW 1013,2 24 0,0
05.08.2020 23:00:00 15,3 15,1 8 4 23 13 WZW 1012,7 26 0,1
05.08.2020 22:00:00 15,3 15,1 8 4 22 12 ZW 1012,2 14 0,0
05.08.2020 21:00:00 15,0 14,8 5 3 16 8 Z 1011,7 17 0,5
05.08.2020 20:00:00 14,8 14,6 4 2 15 8 Z 1011,3 3,2 0,8
05.08.2020 19:00:00 14,7 14,5 5 3 18 10 ZZW 1011,0 3,4 0,6
05.08.2020 18:00:00 14,5 14,3 4 2 18 10 Z 1010,9 3,3 0,6
05.08.2020 17:00:00 14,3 14,1 7 4 19 10 Z 1010,7 3,4 0,3
05.08.2020 16:00:00 14,0 13,8 6 3 18 10 ZZO 1010,6 6 0,1
05.08.2020 15:00:00 13,8 13,6 7 4 19 11 Z 1010,8 19 0,1
05.08.2020 14:00:00 13,0 12,8 7 4 30 16 ZZO 1011,0 3,0 0,1
05.08.2020 13:00:00 12,9 12,7 10 5 34 18 ZZO 1011,0 6 0,0
05.08.2020 12:00:00 12,1 11,9 7 4 22 12 ZZO 1011,3 9 0,6
05.08.2020 11:00:00 11,9 11,8 7 4 22 12 ZZO 1011,5 5 0,4
05.08.2020 10:00:00 11,9 11,7 6 4 20 11 ZZO 1011,7 18 0,8
05.08.2020 09:00:00 12,2 12,0 5 3 15 8 ZZO 1011,6 13 0,5
05.08.2020 08:00:00 11,9 11,7 5 3 19 10 ZZO 1011,4 20 0,2
05.08.2020 07:00:00 11,3 11,1 3 2 11 6 ZO 1011,4 27 0,2
05.08.2020 06:00:00 10,3 10,1 3 2 7 4 ZO 1011,3 28 0,0
05.08.2020 05:00:00 9,0 8,7 0 0 7 4 N 1011,4 15 0,0
05.08.2020 04:00:00 8,5 8,4 0 0 7 4 N 1011,5 - 0,0
05.08.2020 03:00:00 8,8 8,7 0 0 5 3 N 1011,3 11 0,0
05.08.2020 02:00:00 8,8 8,7 0 0 7 4 N 1011,3 12 0,0
05.08.2020 01:00:00 8,8 8,7 0 0 9 5 N 1011,5 11 0,0
05.08.2020 00:00:00 9,3 9,2 3 1 8 5 ZO 1011,4 24 0,0
04.08.2020 23:00:00 9,9 8,9 2 1 11 6 ZZW 1011,4 40 0,0
04.08.2020 22:00:00 11,4 7,5 0 0 16 8 N 1011,2 50 0,0
04.08.2020 21:00:00 14,1 7,2 7 4 21 11 WZW 1010,8 50 0,0
04.08.2020 20:00:00 15,7 6,1 9 5 21 12 WZW 1010,3 50 0,0
04.08.2020 19:00:00 17,0 6,8 10 5 24 13 W 1009,8 44 0,0
04.08.2020 18:00:00 18,1 7,5 8 4 29 15 WZW 1009,4 50 0,0
04.08.2020 17:00:00 18,6 9,6 12 7 24 13 W 1009,2 44 0,0
04.08.2020 16:00:00 19,2 8,2 10 6 23 12 WZW 1009,0 45 0,0
04.08.2020 15:00:00 19,3 7,7 11 6 19 10 WZW 1008,9 41 0,0
04.08.2020 14:00:00 18,1 10,0 5 3 15 8 W 1009,0 45 0,0
04.08.2020 13:00:00 17,8 10,2 7 4 21 12 WZW 1008,9 46 0,0
04.08.2020 12:00:00 18,2 10,8 4 2 16 9 W 1009,0 33 0,0
04.08.2020 11:00:00 17,3 12,0 5 3 14 8 W 1009,0 41 0,0
04.08.2020 10:00:00 16,4 12,2 5 3 13 7 ZZO 1009,0 38 0,0
04.08.2020 09:00:00 14,5 10,9 7 4 14 7 O 1009,0 35 0,0
04.08.2020 08:00:00 12,7 11,6 5 3 13 7 OZO 1009,0 40 0,0
04.08.2020 07:00:00 9,6 9,5 3 1 6 4 OZO 1008,9 15 0,0
04.08.2020 06:00:00 7,9 7,8 0 0 2 1 N 1008,8 2,8 0,0
04.08.2020 05:00:00 8,4 8,2 0 0 5 3 N 1008,9 0,3 0,0
04.08.2020 04:00:00 8,7 8,6 3 1 5 3 ONO 1009,2 4,2 0,0
04.08.2020 03:00:00 8,1 8,0 3 1 4 2 NO 1009,0 4,3 0,0
04.08.2020 02:00:00 8,2 8,1 0 0 5 3 N 1008,9 3,0 0,0
04.08.2020 01:00:00 8,0 7,9 0 0 3 2 N 1008,7 - 0,0
04.08.2020 00:00:00 8,7 8,6 0 0 8 4 N 1008,4 37 0,0
03.08.2020 23:00:00 10,2 9,3 0 0 8 4 N 1008,2 50 0,0
03.08.2020 22:00:00 10,9 8,5 0 0 9 5 N 1008,0 50 0,0
03.08.2020 21:00:00 14,7 8,0 0 0 15 8 N 1007,5 50 0,0
03.08.2020 20:00:00 16,0 8,2 4 2 20 11 WZW 1007,1 50 0,0
03.08.2020 19:00:00 18,2 8,2 9 5 25 14 W 1006,7 50 0,0
03.08.2020 18:00:00 18,9 8,0 10 6 26 14 WZW 1006,7 47 0,0
03.08.2020 17:00:00 19,6 8,5 13 7 29 16 WZW 1006,4 44 0,0
03.08.2020 16:00:00 19,3 7,4 13 7 26 14 WZW 1006,4 48 0,0
03.08.2020 15:00:00 19,1 8,7 11 6 29 16 W 1006,5 42 0,0
03.08.2020 14:00:00 19,1 8,4 12 7 26 14 WZW 1006,5 44 0,0
03.08.2020 13:00:00 18,8 9,3 14 8 29 15 W 1006,2 41 0,0
03.08.2020 12:00:00 18,3 8,6 14 7 27 15 W 1006,1 43 0,0
03.08.2020 11:00:00 17,2 7,6 13 7 27 14 WZW 1005,9 40 0,0
03.08.2020 10:00:00 16,4 7,6 13 7 28 15 W 1005,7 50 0,0
03.08.2020 09:00:00 15,6 8,3 11 6 25 13 W 1005,6 50 0,0
03.08.2020 08:00:00 14,4 9,0 8 4 19 11 W 1005,3 50 0,0
03.08.2020 07:00:00 13,2 10,7 5 3 13 7 WZW 1005,1 46 0,0
03.08.2020 06:00:00 11,2 11,0 4 2 9 5 ZZW 1005,0 31 0,0
03.08.2020 05:00:00 11,7 11,5 0 0 10 5 N 1004,9 23 0,0
03.08.2020 04:00:00 12,3 11,4 4 2 17 9 Z 1004,9 28 0,0
03.08.2020 03:00:00 13,4 11,6 9 5 24 13 ZW 1005,1 25 0,0
03.08.2020 02:00:00 13,5 11,9 9 5 23 12 ZW 1005,1 21 0,0
03.08.2020 01:00:00 13,8 11,8 7 4 18 10 ZW 1005,4 21 0,0
03.08.2020 00:00:00 13,8 11,7 6 3 20 11 ZZW 1005,6 23 0,0
02.08.2020 23:00:00 13,7 11,1 8 4 20 11 ZW 1005,8 21 0,0
02.08.2020 22:00:00 13,5 11,0 7 4 23 12 ZW 1006,0 21 0,0
02.08.2020 21:00:00 13,9 11,4 7 4 28 15 ZZW 1006,0 21 0,0
02.08.2020 20:00:00 14,7 12,7 7 4 20 11 ZW 1006,2 24 0,0
02.08.2020 19:00:00 14,4 14,2 9 5 23 12 ZW 1006,5 5 0,0
02.08.2020 18:00:00 16,2 13,5 4 2 17 9 ZW 1006,3 37 0,0
02.08.2020 17:00:00 15,8 13,2 8 4 21 11 ZW 1006,8 50 0,0
02.08.2020 16:00:00 16,2 12,9 8 4 24 13 ZW 1006,9 48 0,0
02.08.2020 15:00:00 16,4 14,2 8 5 20 11 ZW 1007,1 42 0,0
02.08.2020 14:00:00 17,4 16,4 5 3 15 8 ZZW 1007,0 24 -
02.08.2020 13:00:00 16,9 16,4 5 3 13 7 Z 1007,1 37 0,5
02.08.2020 12:00:00 16,9 14,7 2 1 12 6 ZZO 1007,4 45 0,0
02.08.2020 11:00:00 17,0 14,5 4 2 14 8 ZZO 1007,6 50 0,0
02.08.2020 10:00:00 16,7 14,5 4 2 9 5 ZO 1007,9 50 0,0
02.08.2020 09:00:00 15,8 14,0 4 2 14 8 ZO 1008,4 34 0,1
02.08.2020 08:00:00 17,7 13,2 7 4 13 7 ZZO 1008,6 50 0,0
02.08.2020 07:00:00 16,7 13,4 3 2 8 5 OZO 1009,3 50 0,0
02.08.2020 06:00:00 14,6 14,3 3 2 6 3 O 1009,9 50 0,0
02.08.2020 05:00:00 14,6 14,0 3 1 5 3 O 1010,4 50 0,0
02.08.2020 04:00:00 13,9 13,7 2 1 8 4 O 1011,1 50 0,0
02.08.2020 03:00:00 13,5 13,3 0 0 5 3 N 1011,8 50 0,0
02.08.2020 02:00:00 13,9 13,7 0 0 5 3 N 1012,4 50 0,0
02.08.2020 01:00:00 13,4 13,2 0 0 4 2 N 1013,0 50 0,0
02.08.2020 00:00:00 13,1 12,9 0 0 3 2 N 1013,3 50 0,0
01.08.2020 23:00:00 13,7 13,4 0 0 2 1 N 1013,8 50 0,0

tt = temperatuur
td = dauwpunt
ff = windsnelheid
fx = windstoten
dd = windrichting
ppp = luchtdruk
vv = zicht
rr = neerslag

Weerstations in de omgeving